BREEZE-M DEB, 36959

Orbit data source: Space-Track

BREEZE-M DEB, 36959 is space debris originally from a launch on Tue, 28 Feb 2006 UTC launched from the Tyuratam Missile And Space Complex (TTMTR). Debris objects in space refer to the collection of defunct objects orbiting the Earth. Examples of debris include non-operational satellites, rocket bodies, and fragments generated from explosions, collisions, or faulty payload assembly.

Loading next visibility...
Identifier
36959, 2006-006CR
Orbit
Active
Country
Flag of CISCIS
Related business
Manufacturer
Khrunichev
Mission
Spacecraft
Bus & Motor
Unknown
Mass
Unknown
Launch date (UTC)
2006-02-28 (20 years ago)
Launch vehicle
Unknown
Launch site
Tyuratam Missile And Space Complex (TTMTR)
Object type
Payload
Rocket body
Debris
Shape & HBR
Unknown shape, 0.1 m
Radar Cross Section
Medium (>0.1 m² and <1 m²)

Expand to show TLE details & history
Last TLE update: 2 days ago

TLE from 2 days ago
0 BREEZE-M DEB
1 36959U 06006CR  26161.10410895  .00075554  00000-0  13693-1 0  9997
2 36959  51.8930 292.6594 2825223 185.4518 354.0193  9.49849599348403
Epoch: 2026-06-10T02:29Z
TLE epoch observation values (Epoch: 2026-06-10T02:29:55.013Z)
Latitude
4.41716°
Longitude
173.26012°
Altitude
407.479 km
Speed
8.672 km/s
True Right ascension
07h 16m 49s
True Declination
4° 23' 22"
Sunlit
Object was in daylight at epoch
Visualization orbit readout
Latitude
Unknown
Longitude
Unknown
Altitude
Unknown
Speed
Unknown
Apparent Right ascension
Unknown
Apparent Declination
Unknown
Sunlit
N/A
Visualization observer readout
Local Sidereal Time
15:41:19
Azimuth
Unknown
Elevation
Unknown
Doppler factor
Unknown
Orbital elements
Apogee altitude
5,701.333 km
Perigee altitude
379.446 km
Semi-major axis
9,418.526 km
Eccentricity
0.28252
Inclination
51.893°
RAAN
292.6594°
Arg. of periapsis
185.4518°
True anomaly
348.88597°
Mean anomaly
354.0193°
Eccentric anomaly
351.67579°
Mean motion
2.37448 °/min
Orbital period
151.61 mins
BSTAR
0.013693
Loading maneuver chart data...
Computing Atmospheric mass density...
Loading historical data...
Loading historical data...
Loading historical data...
Loading historical data...
Loading historical data...
Loading historical data...
Loading historical data...

Documentation

Showing up to 5 results
|